www.pogodaiklimat.ru

Погода и климат >> Архив погоды >> Россия >> Красноярский край >> Туруханск


АРХИВ ПОГОДЫ в Туруханске

Время (UTC), дата Ветер
(напр.,м/с)
 
Видим.   Явления Облачность Т
(С)
Тd
(С)
f
(%)
Тe
(С)
Тes
(С)
Комфортность P
(гПа)
Po
(гПа)
Тmin
(С)
Tmax
(С)
R
(мм)
R24
(мм)
S
(см)
12 14.05 СВ 4 50 км 6/0
[Ci fib]
+5.2 -4.9 48 +2 +3 1019.2 1014.0 +5.3
15 14.05 С 2 50 км 4/0
[Ci fib]
+4.4 -6.6 45 +2 +2 1019.2 1014.0
18 14.05 С 3 50 км 1/0
[Ci fib]
0.0 -6.7 61 -4 -4 1019.2 1013.9
21 14.05 С 1 50 км ясно -2.4 -7.4 68 -4 -4 1019.2 1013.9
00 15.05 С 2 50 км ясно -1.2 -7.1 64 -5 -3 1019.4 1014.1 -2.7 78
03 15.05 СЗ 2 50 км 1/0
[Ci fib]
+2.4 -5.8 55 -0 +7 1019.3 1014.1
06 15.05 СВ 5 50 км 6/0
[Ci fib]
+4.2 -7.3 43 0 +5 1018.7 1013.5
09 15.05 СВ 4 50 км 3/0
[Ci fib]
+5.4 -5.8 44 +2 +7 1019.1 1013.9
12 15.05 С 4 50 км ясно +5.0 -6.9 42 +2 +3 1019.2 1014.0 +5.5
15 15.05 С 3 50 км 1/0
[Ci fib]
+3.2 -9.6 38 0 0 1019.6 1014.4
18 15.05 С 3 50 км 1/0
[Ci fib]
-0.8 -9.0 54 -5 -5 1019.6 1014.3
21 15.05 С 2 50 км 1/0
[Ci fib]
-2.7 -9.7 59 -6 -6 1019.7 1014.4
00 16.05 СВ 2 50 км 1/0
[Ci fib]
-0.1 -8.3 54 -3 -1 1020.4 1015.0 -3.2 73
03 16.05 ЮЗ 2 50 км ясно +2.9 -6.3 51 +1 +8 1020.1 1014.9
06 16.05 СЗ 1 50 км ясно +5.0 -5.6 46 +4 +17 опасность
простуды
1019.9 1014.6
09 16.05 С 3 50 км 1/0
[Ci fib]
+5.8 -5.1 45 +3 +10 1020.0 1014.8
12 16.05 С 3 50 км 1/0
[Ci fib]
+6.5 -4.8 44 +4 +6 1019.9 1014.7 +7.0
15 16.05 СВ 2 50 км 3/0
[Ci fib]
+5.4 -5.4 46 +4 +4 1019.9 1014.7
18 16.05 СВ 1 50 км ясно -0.2 -6.7 62 -2 -2 1019.7 1014.4
21 16.05 В 2 50 км 1/0
[Ci fib]
-1.1 -6.5 67 -5 -5 1019.6 1014.3
00 17.05 В 2 50 км 3/0
[Ci fib]
+2.1 -5.4 58 -1 +1 1019.5 1014.3 -1.6 66
03 17.05 ЮВ 1 50 км 3/0
[Ci fib]
+6.4 -3.8 48 +6 +14 1019.3 1014.1
06 17.05 В 2 50 км 3/0
[Ci fib]
+6.9 -5.4 41 +5 +16 опасность
простуды
1019.0 1013.8
09 17.05 Ю 1 50 км 8/8 600 м
[Cu Sc]
+8.8 -4.3 39 +9 +11 1018.5 1013.4
12 17.05 Ю 3 50 км 8/8 600 м
[Sc]
+8.0 -4.4 41 +6 +6 1018.5 1013.4 +10.9
15 17.05 В 1 50 км 4/4 600 м
[Sc]
+5.2 -3.7 53 +5 +5 1018.8 1013.6
18 17.05 В 1 50 км 6/6 600 м
[Sc]
+2.0 -3.4 67 +1 +1 1018.9 1013.7
21 17.05 В 3 50 км 8/8 600 м
[Sc]
+3.3 -3.4 61 -0 -0 1018.4 1013.2
00 18.05 ЮВ 2 50 км 1/1 600 м
[Sc]
+5.8 -3.2 52 +4 +6 1018.2 1013.0 +1.8 58
03 18.05 ЮВ 3 50 км 1/1 600 м
[Sc]
+8.2 -3.3 44 +6 +12 1017.4 1012.3
06 18.05 ЮВ 3
{11}
50 км 6/6 1000 м
[Cu Sc]
+9.2 -4.0 39 +7 +11 1016.1 1011.0
09 18.05 ЮВ 4
{11}
50 км 6/6 1000 м
[Cu Sc]
+10.1 -4.1 37 +8 +10 1014.8 1009.7
12 18.05 ЮВ 4
{14}
50 км 6/6 1000 м
[Cu Sc]
+9.5 -3.5 40 +7 +8 1014.2 1009.1 +10.3
15 18.05 В 4 50 км 8/8 600 м
[Sc]
+6.5 -5.3 43 +4 +4 1013.3 1008.1
18 18.05 В 4 50 км 9/9 600 м
[Sc]
+5.0 -4.0 52 +1 +1 1012.0 1006.8
21 18.05 В 3 50 км 9/9 600 м
[Sc]
+5.3 -2.8 56 +2 +2 1010.1 1004.9
00 19.05 В 4
{10}
10 км слаб. ливневой дождь 9/8 300 м
[Cb cap Cs]
+5.9 -0.4 64 +2 +3 1008.2 1003.0 +4.7 0.0 53
03 19.05 ЮВ 4
{13}
10 км слаб. ливневой дождь 9/8 300 м
[Cb cap Cs]
+5.8 -0.5 64 +2 +3 1007.0 1001.8
06 19.05 В 5
{10}
20 км {ливн. осадки} 9/6 300 м
[Cb cap Cs]
+6.6 +1.4 69 +3 +5 1005.6 1000.4
09 19.05 В 4
{11}
10 км слаб. ливневой дождь 9/8 300 м
[Cb cap Cs]
+5.9 +1.4 73 +2 +3 1004.9 999.7
12 19.05 В 5
{10}
10 км слаб. ливневой дождь 10/10 300 м
[Cb cap]
+4.8 +2.6 86 0 0 1004.1 998.9 +6.8 1
15 19.05 В 4 10 км слаб. ливневой дождь 10/10 300 м
[Cb cap]
+4.6 +3.6 93 0 0 1003.4 998.2
18 19.05 В 5 10 км слаб. ливневой дождь 10/10 300 м
[Cb cap]
+4.4 +3.4 93 -1 -1 1001.0 995.8
21 19.05 В 4 10 км слаб. ливневой дождь 10/10 300 м
[Cb cap]
+4.9 +3.2 89 +1 +1 998.6 993.4
00 20.05 В 4 10 км слаб. ливневой дождь 10/10 300 м
[Cb cap]
+4.8 +3.1 89 +1 +1 997.6 992.5 +4.3 3 51
03 20.05 Ю 3 50 м слаб. ливневой дождь {туман} туман 10/10 300 м
[Cb cap]
+3.6 +3.4 99 -1 -1 997.9 992.8 +3.6
06 20.05 ЮЗ 2 20 км {ливн. осадки, морось} 9/9 600 м
[St]
+3.8 +2.8 93 +1 +2 999.2 994.1
09 20.05 ЮЗ 2 20 км 9/9 600 м
[Sc]
+4.8 +1.8 81 +2 +3 1000.5 995.3
12 20.05 Ю 1 20 км 10/10 600 м
[Sc]
+4.6 +0.4 74 +3 +3 1001.1 995.9 +5.0 0.0
15 20.05 штиль 0 20 км 4/3 600 м
[Sc Ci fib]
+4.9 +1.1 76 +4 +4 1000.0 994.9
18 20.05 СВ 2 50 км 3/3 600 м
[Sc]
+0.4 -0.4 94 -3 -3 998.7 993.5
21 20.05 СВ 2 50 км 4/3 600 м
[Sc Ci fib]
-0.9 -1.1 99 -5 -5 996.6 991.4
00 21.05 В 2 50 км 5/5 600 м
[Sc Ci fib]
+4.1 +0.9 80 +1 +3 994.9 989.8 -1.1 33
03 21.05 В 1 10 км слаб. ливневой дождь 9/8 300 м
[Cb cap Ci fib]
+5.6 +0.5 70 +5 +6 994.1 989.0
06 21.05 штиль 0 10 км слаб. ливневой дождь 9/9 300 м
[St]
+8.4 +0.7 58 +8 +10 993.6 988.6
09 21.05 Ю 1 10 км сильн. ливневой дождь 9/9 300 м
[Cb cap]
+7.4 +2.6 72 +7 +8 993.9 988.9

 

Местоположение метеостанции Туруханск (Красноярский край, Россия): широта 65.78 долгота 87.93 высота над уровнем моря 38 м.

В архиве по умолчанию представлена погода в Туруханске за последнюю неделю. Архивные данные за месяц целиком и за предыдущие месяцы, начиная с января 2011 года, Вы можете получить, выбрав интересующий диапазон дат из раскрывающегося списка и нажав кнопку "Ввод!".


*Определитесь, кто Вы:
робот инопланетянин человек

Внимание! Время в таблицах - всемирное. Для получения местного времени необходимо прибавить поправку, которая равна 7 ч.

Смотрите также архив погоды в соседних городах и на ближайших метеорологических станциях:

Погода в Курейке (Красноярский край, Россия) (83 км)
Погода в Большом Пороге (Эвенкия, Россия) (98 км)
Погода в Светлогорске (Красноярский край, Россия) (132 км)
Погода в Верещагино (Красноярский край, Россия) (174 км)
Погода в Горбиачине (Красноярский край, Россия) (189 км)
Погода в Игарке (Красноярский край, Россия) (197 км)
Погода в Советской Речке (Красноярский край, Россия) (218 км)
Погода в Красноселькупске (Ямало-Ненецкий АО, Россия) (251 км)
Погода в Снежногорске (Красноярский край, Россия) (258 км)
Погода в Агате (Эвенкия, Россия) (276 км)

Пояснения к столбцам:

Ветер - указаны скорость ветра в м/с - средняя за 10 мин, порывы в срок и между сроками (в фигурных скобках) и направление, откуда дует ветер: С - северный, СВ - северо-восточный, В - восточный, ЮВ - юго-восточный, Ю - южный, ЮЗ - юго-западный, З - западный, СЗ - северо-западный.
Видимость - горизонтальная дальность видимости в метрах или километрах. При видимости от 1 до 10 км при отсутствии осадков обычно наблюдается дымка, при ухудшении видимости до 1 км и менее - туман. В сухую погоду видимость может ухудшаться дымом, пылью или мглою.
Явления - указаны атмосферные явления, наблюдавшиеся в срок или в последний час перед сроком; фигурными скобками обозначены явления, наблюдавшиеся между сроками (за 1-3 часа до срока); квадратными скобками обозначены град или гололедные отложения с указанием их диаметра в мм.
Облачность - указаны через наклонную черту общая и нижняя облачность в баллах и высота нижней границы облаков в метрах; квадратными скобками обозначены формы облаков: Ci - перистые, Cs - перисто-слоистые, Cc - перисто-кучевые, Ac - высококучевые, As - высокослоистые, Sc - слоисто-кучевые, Ns - слоисто-дождевые, Cu - кучевые, Cb - кучево-дождевые. Подробнее классификацию облаков см. в Атласе облаков (PDF).
T - Температура воздуха - температура, измеренная на высоте 2 м над землей.
Td - Температура точки росы - температура, при понижении до которой содержащийся в воздухе водяной пар достигнет насыщения.
f - Относительная влажность воздуха - влажноcть воздуха, измеренная на высоте 2 м над землей.
Te - Эффективная температура - температура, которую ощущает одетый по сезону человек в тени. Характеристика душности погоды. При расчете учитывается влияние влажности воздуха и скорости ветра на теплоощущения человека.
Tes - Эффективная температура на солнце - температура, которую ощущает человек, с поправкой на солнечный нагрев. Характеристика знойности погоды. Зависит от высоты солнца над горизонтом, облачности и скорости ветра. Ночью, в пасмурную погоду, а также при ветре 12 м/с и более поправка равна нулю.
P - Атмосферное давление - приведенное к уровню моря атмосферное давление.
Po - Атмосферное давление - измеренное на уровне метеостанции атмосферное давление.
Tmin - Минимальная температура - минимум температуры воздуха на высоте 2 м над землей.
Tmax - Максимальная температура - максимум температуры воздуха на высоте 2 м над землей.
R - Количество осадков - Количество выпавших осадков за период времени, мм. При наведении курсора мыши на число - период времени, за который выпало указанное количество осадков.
R24 - Количество осадков - Количество выпавших осадков за 24 часа, мм.
S - Снежный покров - Высота снежного покрова, см. При наведении курсора мыши на число - состояние снежного покрова и степень покрытия местности в баллах.